Regional Weather Roundup
Issued by NWS Sioux Falls, SD

Home | Current Version | Previous Version | Text Only | Print | Product List | Glossary On
Versions: 1 2 3 4 5 6 7 8 9 10 11 12 13 14 15 16 17 18 19 20 21 22 23 24 25 26 27 28 29 30 31 32 33 34 35 36 37 38 39 40 41 42 43 44 45 46 47 48 49 50
000
ASUS43 KFSD 170010
RWRFSD

WEATHER ROUNDUP FOR SE SOUTH DAKOTA/SW MINNESOTA/NW IOWA
NATIONAL WEATHER SERVICE SIOUX FALLS SD
600 PM CST SAT DEC 16 2017

NOTE: "FAIR" INDICATES FEW OR NO CLOUDS BELOW 12,000 FEET WITH NO
SIGNIFICANT WEATHER AND OR OBSTRUCTIONS TO VISIBILITY.


SDZ038>040-050-052>070-170100-
SOUTHEAST SOUTH DAKOTA

CITY           SKY/WX    TMP DP  RH WIND       PRES   REMARKS
BROOKINGS      CLOUDY    36  31  82 NE3       29.98R
CHAMBERLAIN    PTCLDY    40  34  79 N5        29.99R
6HR MIN TEMP:  40; 6HR MAX TEMP:  43;

HURON          CLOUDY    38  33  82 NE3       29.99R
6HR MIN TEMP:  38; 6HR MAX TEMP:  43;

MADISON        CLOUDY    34  34 100 N6        29.97R WCI  29
MITCHELL       CLOUDY    37  33  85 N6        30.00R
6HR MIN TEMP:  37; 6HR MAX TEMP:  44;

SIOUX FALLS    PTCLDY    34  30  85 NE6       29.97R WCI  29
6HR MIN TEMP:  34; 6HR MAX TEMP:  46;

WINNER         CLOUDY    38  32  79 N5        29.99R
YANKTON        CLOUDY    37  32  82 N5        29.97R
$$

MNZ071-072-080-081-089-090-097-098-170100-
SOUTHWEST MINNESOTA

CITY           SKY/WX    TMP DP  RH WIND       PRES   REMARKS
FAIRMONT       CLOUDY    32  28  85 N8        29.98R WCI  25
JACKSON        PTCLDY    30  27  86 NE6       29.98R WCI  24
LUVERNE        CLOUDY    34  28  80 N5        29.98R WCI  30
MARSHALL       PTCLDY    30  27  88 NE7       30.01R WCI  23
6HR MIN TEMP:  30; 6HR MAX TEMP:  41;

MONTEVIDEO     MOCLDY    30  27  86 E5        30.02R WCI  25
PIPESTONE      CLOUDY    34  28  80 CALM      29.96R
REDWOOD FALLS  CLOUDY    30  26  85 NE3       30.01R
WINDOM           N/A     30  18  59 N6        29.98R WCI  24
WORTHINGTON    CLOUDY    32  27  81 N10       29.96R WCI  24
$$

IAZ001>003-012>014-020>022-031-032-NEZ013-014-SDZ071-170100-
NORTHWEST IOWA

CITY           SKY/WX    TMP DP  RH WIND       PRES   REMARKS
CHEROKEE       CLEAR     38  30  71 NE5       29.96R
ESTHERVILLE    CLOUDY    32  28  85 N10       29.96R WCI  24
LE MARS        CLOUDY    36  28  75 N10       29.96R
ORANGE CITY    CLEAR     39  34  81 NE6       29.96R
SHELDON        PTCLDY    36  28  75 NE8       29.95R
SIOUX CITY     CLOUDY    38  30  73 N8        29.95R
6HR MIN TEMP:  37; 6HR MAX TEMP:  49;

SPENCER        CLOUDY    34  27  75 N9        29.96R WCI  27
6HR MIN TEMP:  34; 6HR MAX TEMP:  47;

STORM LAKE     CLEAR     37  28  70 N14       29.93R
$$

ABBREVIATIONS USED IN REMARKS
   TC - TEMPERATURE IN CELSIUS
  WCI - WIND CHILL INDEX
   HX - HEAT INDEX
  VSB - VISIBILITY





USA.gov is the U.S. government's official web portal to all federal, state and local government web resources and services.